Time,TemperatureF,DewpointF,PressureIn,WindDirection,WindDirectionDegrees,WindSpeedMPH,WindSpeedGustMPH,Humidity,HourlyPrecipIn,Conditions,Clouds,dailyrainin,SoftwareType,DateUTC
2013-06-07 00:01:00,64.0,55.9,29.91,NE,45,0.0,0.0,75,0.00,,,0.00,WUHU21623XXSP,2013-06-07 04:01:00,
2013-06-07 00:02:00,64.0,55.9,29.91,NE,45,0.0,0.0,75,0.00,,,0.00,WUHU21623XXSP,2013-06-07 04:02:00,
2013-06-07 00:07:00,63.7,55.9,29.91,NE,45,0.0,0.0,76,0.00,,,0.00,WUHU21623XXSP,2013-06-07 04:07:00,
2013-06-07 00:12:00,63.7,55.9,29.91,NE,45,0.0,0.0,76,0.00,,,0.00,WUHU21623XXSP,2013-06-07 04:12:00,
2013-06-07 00:17:00,63.5,55.8,29.91,NE,45,0.0,0.0,76,0.00,,,0.00,WUHU21623XXSP,2013-06-07 04:17:00,
2013-06-07 00:22:00,63.3,55.6,29.91,NE,45,0.0,0.0,76,0.00,,,0.00,WUHU21623XXSP,2013-06-07 04:22:00,
2013-06-07 00:27:00,63.1,55.8,29.91,NE,45,0.0,0.0,77,0.00,,,0.00,WUHU21623XXSP,2013-06-07 04:27:00,
2013-06-07 00:32:00,63.1,55.8,29.91,NE,45,0.0,0.0,77,0.00,,,0.00,WUHU21623XXSP,2013-06-07 04:32:00,
2013-06-07 00:37:00,63.0,55.6,29.90,NE,45,0.0,0.0,77,0.00,,,0.00,WUHU21623XXSP,2013-06-07 04:37:00,
2013-06-07 00:42:00,62.8,55.4,29.90,NE,45,0.0,0.0,77,0.00,,,0.00,WUHU21623XXSP,2013-06-07 04:42:00,
2013-06-07 00:47:00,62.4,55.1,29.90,NE,45,0.0,0.0,77,0.00,,,0.00,WUHU21623XXSP,2013-06-07 04:47:00,
2013-06-07 00:52:00,62.4,55.1,29.90,NE,45,0.0,0.0,77,0.00,,,0.00,WUHU21623XXSP,2013-06-07 04:52:00,
2013-06-07 00:57:00,62.4,55.8,29.90,NE,45,0.0,0.0,79,0.00,,,0.00,WUHU21623XXSP,2013-06-07 04:57:00,
2013-06-07 01:02:00,62.4,55.8,29.89,NE,45,0.0,0.0,79,0.00,,,0.00,WUHU21623XXSP,2013-06-07 05:02:00,
2013-06-07 01:07:00,62.4,56.1,29.90,NE,45,0.0,0.0,80,0.00,,,0.00,WUHU21623XXSP,2013-06-07 05:07:00,
2013-06-07 01:12:00,62.4,56.1,29.90,NE,45,0.0,0.0,80,0.00,,,0.00,WUHU21623XXSP,2013-06-07 05:12:00,
2013-06-07 01:17:00,62.2,56.0,29.90,NE,45,0.0,0.0,80,0.00,,,0.00,WUHU21623XXSP,2013-06-07 05:17:00,
2013-06-07 01:22:00,61.9,55.7,29.90,NE,45,0.0,0.0,80,0.00,,,0.00,WUHU21623XXSP,2013-06-07 05:22:00,
2013-06-07 01:27:00,61.7,55.7,29.90,NE,45,0.0,0.0,80,0.00,,,0.00,WUHU21623XXSP,2013-06-07 05:27:00,
2013-06-07 01:32:00,61.7,55.5,29.90,NE,45,0.0,0.0,80,0.00,,,0.00,WUHU21623XXSP,2013-06-07 05:32:00,
2013-06-07 01:37:00,61.7,55.8,29.90,ENE,67,0.0,0.0,81,0.00,,,0.00,WUHU21623XXSP,2013-06-07 05:37:00,
2013-06-07 01:42:00,61.7,55.8,29.90,ENE,67,0.0,0.0,81,0.00,,,0.00,WUHU21623XXSP,2013-06-07 05:42:00,
2013-06-07 01:47:00,61.7,55.8,29.90,ENE,67,0.0,0.0,81,0.00,,,0.00,WUHU21623XXSP,2013-06-07 05:47:00,
2013-06-07 01:52:00,61.5,55.7,29.90,ENE,67,0.0,0.0,81,0.00,,,0.00,WUHU21623XXSP,2013-06-07 05:52:00,
2013-06-07 01:57:00,61.7,56.2,29.90,ENE,67,0.0,0.0,82,0.00,,,0.00,WUHU21623XXSP,2013-06-07 05:57:00,
2013-06-07 02:02:00,61.9,56.3,29.90,ENE,67,0.0,0.0,82,0.00,,,0.00,WUHU21623XXSP,2013-06-07 06:02:00,
2013-06-07 02:07:00,61.9,56.3,29.90,ENE,67,0.0,0.9,82,0.00,,,0.00,WUHU21623XXSP,2013-06-07 06:07:00,
2013-06-07 02:12:00,61.9,56.3,29.90,ENE,67,0.0,0.9,82,0.00,,,0.00,WUHU21623XXSP,2013-06-07 06:12:00,
2013-06-07 02:17:00,61.9,56.3,29.90,ENE,67,0.0,0.0,82,0.00,,,0.00,WUHU21623XXSP,2013-06-07 06:17:00,
2013-06-07 02:22:00,61.7,56.2,29.90,ENE,67,0.0,0.0,82,0.00,,,0.00,WUHU21623XXSP,2013-06-07 06:22:00,
2013-06-07 02:27:00,61.5,56.0,29.90,ENE,67,0.0,0.0,82,0.00,,,0.00,WUHU21623XXSP,2013-06-07 06:27:00,
2013-06-07 02:32:00,61.5,56.0,29.90,ENE,67,0.0,0.0,82,0.00,,,0.00,WUHU21623XXSP,2013-06-07 06:32:00,
2013-06-07 02:37:00,61.3,55.8,29.90,ENE,67,0.0,0.0,82,0.00,,,0.00,WUHU21623XXSP,2013-06-07 06:37:00,
2013-06-07 02:42:00,61.0,55.5,29.90,ENE,67,0.0,0.0,82,0.00,,,0.00,WUHU21623XXSP,2013-06-07 06:42:00,
2013-06-07 02:47:00,61.0,55.5,29.89,ENE,67,0.0,0.0,82,0.00,,,0.00,WUHU21623XXSP,2013-06-07 06:47:00,
2013-06-07 02:52:00,61.0,55.8,29.89,NE,45,0.0,0.0,83,0.00,,,0.00,WUHU21623XXSP,2013-06-07 06:52:00,
2013-06-07 02:57:00,61.0,55.8,29.89,ENE,67,0.0,0.0,83,0.00,,,0.00,WUHU21623XXSP,2013-06-07 06:57:00,
2013-06-07 03:02:00,61.0,55.8,29.90,ENE,67,0.0,0.0,83,0.00,,,0.00,WUHU21623XXSP,2013-06-07 07:02:00,
2013-06-07 03:07:00,61.0,55.5,29.90,ENE,67,2.2,2.2,82,0.00,,,0.00,WUHU21623XXSP,2013-06-07 07:07:00,
2013-06-07 03:12:00,61.0,55.5,29.90,ENE,67,0.9,2.2,82,0.00,,,0.00,WUHU21623XXSP,2013-06-07 07:12:00,
2013-06-07 03:17:00,61.0,55.2,29.90,ENE,67,0.0,1.6,81,0.00,,,0.00,WUHU21623XXSP,2013-06-07 07:17:00,
2013-06-07 03:22:00,61.0,55.2,29.90,ENE,67,1.3,1.3,81,0.00,,,0.00,WUHU21623XXSP,2013-06-07 07:22:00,
2013-06-07 03:27:00,61.0,55.2,29.90,ENE,67,0.0,1.3,81,0.00,,,0.00,WUHU21623XXSP,2013-06-07 07:27:00,
2013-06-07 03:32:00,61.0,55.2,29.90,ENE,67,2.7,2.7,81,0.00,,,0.00,WUHU21623XXSP,2013-06-07 07:32:00,
2013-06-07 03:37:00,61.0,55.2,29.90,ENE,67,0.0,2.7,81,0.00,,,0.00,WUHU21623XXSP,2013-06-07 07:37:00,
2013-06-07 03:42:00,61.0,55.2,29.89,NE,45,0.0,0.7,81,0.00,,,0.00,WUHU21623XXSP,2013-06-07 07:42:00,
2013-06-07 03:47:00,61.0,55.2,29.89,ENE,67,0.0,0.0,81,0.00,,,0.00,WUHU21623XXSP,2013-06-07 07:47:00,
2013-06-07 03:52:00,60.6,54.8,29.89,ENE,67,0.0,0.0,81,0.00,,,0.00,WUHU21623XXSP,2013-06-07 07:52:00,
2013-06-07 03:57:00,60.6,54.8,29.89,ENE,67,0.0,0.0,81,0.00,,,0.00,WUHU21623XXSP,2013-06-07 07:57:00,
2013-06-07 04:02:00,60.6,54.8,29.89,ENE,67,0.0,0.0,81,0.00,,,0.00,WUHU21623XXSP,2013-06-07 08:02:00,
2013-06-07 04:07:00,60.6,54.8,29.89,East,90,0.0,0.0,81,0.00,,,0.00,WUHU21623XXSP,2013-06-07 08:07:00,
2013-06-07 04:12:00,60.4,54.6,29.89,East,90,0.0,0.0,81,0.00,,,0.00,WUHU21623XXSP,2013-06-07 08:12:00,
2013-06-07 04:17:00,60.4,54.6,29.89,ENE,67,0.0,0.0,81,0.00,,,0.00,WUHU21623XXSP,2013-06-07 08:17:00,
2013-06-07 04:22:00,60.4,54.6,29.90,ENE,67,0.0,0.0,81,0.00,,,0.00,WUHU21623XXSP,2013-06-07 08:22:00,
2013-06-07 04:27:00,60.3,54.5,29.90,East,90,0.0,0.0,81,0.00,,,0.00,WUHU21623XXSP,2013-06-07 08:27:00,
2013-06-07 04:32:00,60.1,54.3,29.90,East,90,0.0,0.0,81,0.00,,,0.00,WUHU21623XXSP,2013-06-07 08:32:00,
2013-06-07 04:37:00,60.1,54.3,29.89,ENE,67,1.3,1.3,81,0.00,,,0.00,WUHU21623XXSP,2013-06-07 08:37:00,
2013-06-07 04:42:00,60.1,54.6,29.89,ENE,67,0.0,1.3,82,0.00,,,0.00,WUHU21623XXSP,2013-06-07 08:42:00,
2013-06-07 04:47:00,60.1,54.6,29.89,ENE,67,0.0,0.0,82,0.00,,,0.00,WUHU21623XXSP,2013-06-07 08:47:00,
2013-06-07 04:52:00,59.9,54.4,29.89,ENE,67,0.0,0.0,82,0.00,,,0.00,WUHU21623XXSP,2013-06-07 08:52:00,
2013-06-07 04:57:00,59.9,54.4,29.90,ENE,67,0.0,0.0,82,0.00,,,0.00,WUHU21623XXSP,2013-06-07 08:57:00,
2013-06-07 05:02:00,59.7,54.2,29.90,NNE,22,0.0,0.0,82,0.00,,,0.00,WUHU21623XXSP,2013-06-07 09:02:00,
2013-06-07 05:07:00,59.7,54.2,29.90,NE,45,0.0,0.0,82,0.00,,,0.00,WUHU21623XXSP,2013-06-07 09:07:00,
2013-06-07 05:12:00,59.7,54.6,29.90,NE,45,3.1,3.1,83,0.00,,,0.00,WUHU21623XXSP,2013-06-07 09:12:00,
2013-06-07 05:17:00,59.7,54.6,29.90,NE,45,0.0,3.1,83,0.00,,,0.00,WUHU21623XXSP,2013-06-07 09:17:00,
2013-06-07 05:22:00,59.5,54.4,29.90,ENE,67,0.0,0.0,83,0.00,,,0.00,WUHU21623XXSP,2013-06-07 09:22:00,
2013-06-07 05:27:00,59.5,54.4,29.90,ENE,67,0.0,0.0,83,0.00,,,0.00,WUHU21623XXSP,2013-06-07 09:27:00,
2013-06-07 05:32:00,59.5,54.4,29.90,NE,45,0.0,0.0,83,0.00,,,0.00,WUHU21623XXSP,2013-06-07 09:32:00,
2013-06-07 05:37:00,59.4,54.2,29.90,ENE,67,0.4,0.4,83,0.00,,,0.00,WUHU21623XXSP,2013-06-07 09:37:00,
2013-06-07 05:42:00,59.2,54.0,29.90,ENE,67,0.0,0.4,83,0.00,,,0.00,WUHU21623XXSP,2013-06-07 09:42:00,
2013-06-07 05:47:00,59.2,54.0,29.90,ENE,67,0.0,0.0,83,0.00,,,0.00,WUHU21623XXSP,2013-06-07 09:47:00,
2013-06-07 05:52:00,58.8,53.7,29.91,ENE,67,0.0,0.0,83,0.00,,,0.00,WUHU21623XXSP,2013-06-07 09:52:00,
2013-06-07 05:57:00,58.8,53.7,29.91,ENE,67,0.0,0.0,83,0.00,,,0.00,WUHU21623XXSP,2013-06-07 09:57:00,
2013-06-07 06:02:00,58.8,53.7,29.91,ENE,67,0.0,0.0,83,0.00,,,0.00,WUHU21623XXSP,2013-06-07 10:02:00,
2013-06-07 06:07:00,58.8,53.7,29.91,ENE,67,0.0,0.0,83,0.00,,,0.00,WUHU21623XXSP,2013-06-07 10:07:00,
2013-06-07 06:12:00,58.8,53.7,29.91,ENE,67,0.0,0.0,83,0.00,,,0.00,WUHU21623XXSP,2013-06-07 10:12:00,
2013-06-07 06:17:00,58.8,53.7,29.91,ENE,67,0.0,0.0,84,0.00,,,0.00,WUHU21623XXSP,2013-06-07 10:17:00,
2013-06-07 06:22:00,58.8,54.0,29.91,ENE,67,0.0,0.0,84,0.00,,,0.00,WUHU21623XXSP,2013-06-07 10:22:00,
2013-06-07 06:27:00,58.8,54.0,29.91,ENE,67,0.0,0.0,84,0.00,,,0.00,WUHU21623XXSP,2013-06-07 10:27:00,
2013-06-07 06:32:00,58.8,54.0,29.90,ENE,67,0.0,0.0,84,0.00,,,0.00,WUHU21623XXSP,2013-06-07 10:32:00,
2013-06-07 06:37:00,58.8,54.0,29.91,ENE,67,0.0,0.0,84,0.00,,,0.00,WUHU21623XXSP,2013-06-07 10:37:00,
2013-06-07 06:42:00,58.8,54.3,29.91,NNW,337,0.0,0.0,85,0.00,,,0.00,WUHU21623XXSP,2013-06-07 10:42:00,
2013-06-07 06:47:00,58.8,54.3,29.91,ENE,67,0.0,2.2,85,0.00,,,0.00,WUHU21623XXSP,2013-06-07 10:47:00,
2013-06-07 06:52:00,58.8,54.3,29.91,ENE,67,0.0,2.2,85,0.00,,,0.00,WUHU21623XXSP,2013-06-07 10:52:00,
2013-06-07 06:57:00,58.8,54.3,29.91,ENE,67,0.0,0.4,85,0.00,,,0.00,WUHU21623XXSP,2013-06-07 10:57:00,
2013-06-07 07:02:00,58.8,54.3,29.91,ENE,67,0.0,1.8,85,0.00,,,0.00,WUHU21623XXSP,2013-06-07 11:02:00,
2013-06-07 07:07:00,58.8,54.3,29.91,ENE,67,0.0,3.1,85,0.00,,,0.00,WUHU21623XXSP,2013-06-07 11:07:00,
2013-06-07 07:12:00,58.8,54.3,29.91,NE,45,0.0,3.1,85,0.00,,,0.00,WUHU21623XXSP,2013-06-07 11:12:00,
2013-06-07 07:17:00,58.8,54.3,29.91,ENE,67,0.9,0.9,85,0.00,,,0.00,WUHU21623XXSP,2013-06-07 11:17:00,
2013-06-07 07:22:00,58.8,54.3,29.91,ENE,67,0.0,0.9,85,0.00,,,0.00,WUHU21623XXSP,2013-06-07 11:22:00,
2013-06-07 07:27:00,59.2,54.7,29.91,ENE,67,3.4,3.4,85,0.00,,,0.00,WUHU21623XXSP,2013-06-07 11:27:00,
2013-06-07 07:32:00,59.4,54.9,29.91,ENE,67,2.5,3.4,85,0.00,,,0.00,WUHU21623XXSP,2013-06-07 11:32:00,
2013-06-07 07:37:00,59.7,54.9,29.91,ENE,67,0.0,2.5,84,0.00,,,0.00,WUHU21623XXSP,2013-06-07 11:37:00,
2013-06-07 07:42:00,59.7,54.9,29.91,ENE,67,0.0,0.0,84,0.00,,,0.00,WUHU21623XXSP,2013-06-07 11:42:00,
2013-06-07 07:47:00,59.7,54.9,29.91,NE,45,4.5,4.5,84,0.00,,,0.00,WUHU21623XXSP,2013-06-07 11:47:00,
2013-06-07 07:52:00,59.7,54.9,29.91,ENE,67,0.0,4.5,84,0.00,,,0.00,WUHU21623XXSP,2013-06-07 11:52:00,
2013-06-07 07:57:00,60.1,55.3,29.91,ENE,67,0.0,3.1,84,0.00,,,0.00,WUHU21623XXSP,2013-06-07 11:57:00,
2013-06-07 08:02:00,60.1,55.3,29.91,ENE,67,0.0,7.2,84,0.00,,,0.00,WUHU21623XXSP,2013-06-07 12:02:00,
2013-06-07 08:07:00,60.1,55.3,29.91,NE,45,6.9,7.2,84,0.00,,,0.00,WUHU21623XXSP,2013-06-07 12:07:00,
2013-06-07 08:12:00,60.4,55.3,29.91,ENE,67,4.5,6.9,83,0.00,,,0.00,WUHU21623XXSP,2013-06-07 12:12:00,
2013-06-07 08:17:00,60.3,55.1,29.91,NE,45,7.2,7.2,83,0.00,,,0.00,WUHU21623XXSP,2013-06-07 12:17:00,
2013-06-07 08:22:00,60.4,55.3,29.91,NE,45,5.8,7.2,83,0.00,,,0.00,WUHU21623XXSP,2013-06-07 12:22:00,
2013-06-07 08:27:00,60.6,55.5,29.91,NE,45,6.3,7.6,83,0.00,,,0.00,WUHU21623XXSP,2013-06-07 12:27:00,
2013-06-07 08:32:00,60.6,55.5,29.91,NE,45,6.7,7.6,83,0.00,,,0.00,WUHU21623XXSP,2013-06-07 12:32:00,
2013-06-07 08:37:00,61.0,55.8,29.91,NNE,22,8.5,8.5,82,0.00,,,0.00,WUHU21623XXSP,2013-06-07 12:37:00,
2013-06-07 08:42:00,61.0,55.5,29.91,ENE,67,2.0,8.5,82,0.00,,,0.00,WUHU21623XXSP,2013-06-07 12:42:00,
2013-06-07 08:47:00,61.2,55.7,29.91,NE,45,4.9,8.5,82,0.00,,,0.00,WUHU21623XXSP,2013-06-07 12:47:00,
2013-06-07 08:52:00,61.5,56.0,29.91,NE,45,6.0,6.0,82,0.00,,,0.00,WUHU21623XXSP,2013-06-07 12:52:00,
2013-06-07 08:57:00,61.5,56.0,29.92,NE,45,5.1,6.0,82,0.00,,,0.00,WUHU21623XXSP,2013-06-07 12:57:00,
2013-06-07 09:02:00,61.7,55.8,29.92,NE,45,8.9,8.9,81,0.00,,,0.00,WUHU21623XXSP,2013-06-07 13:02:00,
2013-06-07 09:07:00,62.2,56.1,29.92,NE,45,2.7,8.9,81,0.00,,,0.00,WUHU21623XXSP,2013-06-07 13:07:00,
2013-06-07 09:12:00,62.2,56.3,29.92,ENE,67,5.4,8.3,81,0.00,,,0.00,WUHU21623XXSP,2013-06-07 13:12:00,
2013-06-07 09:17:00,62.4,56.5,29.92,NE,45,4.7,8.3,81,0.00,,,0.00,WUHU21623XXSP,2013-06-07 13:17:00,
2013-06-07 09:22:00,62.6,56.6,29.92,ENE,67,0.0,6.9,80,0.00,,,0.00,WUHU21623XXSP,2013-06-07 13:22:00,
2013-06-07 09:27:00,62.8,56.5,29.92,ENE,67,4.3,4.3,80,0.00,,,0.00,WUHU21623XXSP,2013-06-07 13:27:00,
2013-06-07 09:32:00,63.0,56.7,29.92,ENE,67,2.5,4.3,80,0.00,,,0.00,WUHU21623XXSP,2013-06-07 13:32:00,
2013-06-07 09:37:00,63.1,56.8,29.92,ENE,67,4.3,4.3,80,0.00,,,0.00,WUHU21623XXSP,2013-06-07 13:37:00,
2013-06-07 09:42:00,63.3,57.2,29.92,NE,45,5.1,5.1,79,0.00,,,0.00,WUHU21623XXSP,2013-06-07 13:42:00,
2013-06-07 09:47:00,63.7,57.0,29.92,ENE,67,6.9,6.9,79,0.00,,,0.00,WUHU21623XXSP,2013-06-07 13:47:00,
2013-06-07 09:52:00,63.7,56.7,29.92,ENE,67,0.0,7.6,78,0.00,,,0.00,WUHU21623XXSP,2013-06-07 13:52:00,
2013-06-07 09:57:00,64.0,57.0,29.93,ENE,67,4.0,7.6,78,0.00,,,0.00,WUHU21623XXSP,2013-06-07 13:57:00,
2013-06-07 10:02:00,64.2,57.2,29.92,NE,45,2.5,4.0,78,0.00,,,0.00,WUHU21623XXSP,2013-06-07 14:02:00,
2013-06-07 10:07:00,64.2,57.2,29.92,NE,45,7.6,7.6,78,0.00,,,0.00,WUHU21623XXSP,2013-06-07 14:07:00,
2013-06-07 10:12:00,64.2,56.8,29.92,NNE,22,8.5,8.5,77,0.00,,,0.00,WUHU21623XXSP,2013-06-07 14:12:00,
2013-06-07 10:17:00,64.4,57.0,29.92,NE,45,7.2,8.5,77,0.00,,,0.00,WUHU21623XXSP,2013-06-07 14:17:00,
2013-06-07 10:22:00,64.6,57.2,29.92,ENE,67,0.0,7.2,77,0.00,,,0.00,WUHU21623XXSP,2013-06-07 14:22:00,
2013-06-07 10:27:00,64.8,57.0,29.92,ENE,67,3.6,6.0,76,0.00,,,0.00,WUHU21623XXSP,2013-06-07 14:27:00,
2013-06-07 10:32:00,65.1,57.3,29.92,ENE,67,0.9,4.7,76,0.00,,,0.00,WUHU21623XXSP,2013-06-07 14:32:00,
2013-06-07 10:37:00,65.3,57.1,29.92,NE,45,5.6,7.6,75,0.00,,,0.00,WUHU21623XXSP,2013-06-07 14:37:00,
2013-06-07 10:42:00,65.5,57.3,29.92,NNE,22,6.7,7.6,75,0.00,,,0.00,WUHU21623XXSP,2013-06-07 14:42:00,
2013-06-07 10:47:00,65.5,57.3,29.93,North,0,6.3,7.4,75,0.00,,,0.00,WUHU21623XXSP,2013-06-07 14:47:00,
2013-06-07 10:52:00,65.8,57.3,29.93,NE,45,4.0,8.9,74,0.00,,,0.00,WUHU21623XXSP,2013-06-07 14:52:00,
2013-06-07 10:57:00,66.0,57.5,29.92,ENE,67,4.3,8.9,74,0.00,,,0.00,WUHU21623XXSP,2013-06-07 14:57:00,
2013-06-07 11:02:00,66.2,58.0,29.92,NE,45,2.9,6.0,75,0.00,,,0.00,WUHU21623XXSP,2013-06-07 15:02:00,
2013-06-07 11:07:00,66.6,58.0,29.92,NE,45,7.4,7.4,74,0.00,,,0.00,WUHU21623XXSP,2013-06-07 15:07:00,
2013-06-07 11:12:00,66.7,57.8,29.92,ENE,67,5.6,7.4,73,0.00,,,0.00,WUHU21623XXSP,2013-06-07 15:12:00,
2013-06-07 11:17:00,66.9,58.0,29.92,NE,45,8.9,8.9,73,0.00,,,0.00,WUHU21623XXSP,2013-06-07 15:17:00,
2013-06-07 11:22:00,67.3,58.0,29.92,NE,45,1.3,8.9,72,0.00,,,0.00,WUHU21623XXSP,2013-06-07 15:22:00,
2013-06-07 11:27:00,67.6,58.0,29.93,NE,45,1.3,6.9,72,0.00,,,0.00,WUHU21623XXSP,2013-06-07 15:27:00,
2013-06-07 11:32:00,68.2,58.5,29.92,NNE,22,7.2,7.6,72,0.00,,,0.00,WUHU21623XXSP,2013-06-07 15:32:00,
2013-06-07 11:37:00,68.4,58.6,29.92,NNE,22,7.4,7.6,71,0.00,,,0.00,WUHU21623XXSP,2013-06-07 15:37:00,
2013-06-07 11:42:00,68.7,58.6,29.92,NE,45,5.8,7.4,70,0.00,,,0.00,WUHU21623XXSP,2013-06-07 15:42:00,
2013-06-07 11:47:00,69.1,58.9,29.92,NE,45,4.3,7.4,70,0.00,,,0.00,WUHU21623XXSP,2013-06-07 15:47:00,
2013-06-07 11:52:00,69.8,59.1,29.92,NNE,22,6.0,9.2,69,0.00,,,0.00,WUHU21623XXSP,2013-06-07 15:52:00,
2013-06-07 11:57:00,70.2,59.1,29.92,NE,45,3.8,9.2,68,0.00,,,0.00,WUHU21623XXSP,2013-06-07 15:57:00,
2013-06-07 12:02:00,70.5,59.6,29.92,NE,45,3.8,6.0,68,0.00,,,0.00,WUHU21623XXSP,2013-06-07 16:02:00,
2013-06-07 12:07:00,70.9,59.3,29.92,ENE,67,1.3,8.1,67,0.00,,,0.00,WUHU21623XXSP,2013-06-07 16:07:00,
2013-06-07 12:12:00,71.2,59.7,29.92,ENE,67,5.8,8.1,67,0.00,,,0.00,WUHU21623XXSP,2013-06-07 16:12:00,
2013-06-07 12:17:00,71.2,59.3,29.92,NE,45,1.6,5.8,66,0.00,,,0.00,WUHU21623XXSP,2013-06-07 16:17:00,
2013-06-07 12:22:00,71.8,59.8,29.92,NNE,22,6.0,10.5,66,0.00,,,0.00,WUHU21623XXSP,2013-06-07 16:22:00,
2013-06-07 12:27:00,72.1,59.7,29.92,ENE,67,6.3,10.5,65,0.00,,,0.00,WUHU21623XXSP,2013-06-07 16:27:00,
2013-06-07 12:32:00,72.1,59.7,29.92,ENE,67,6.3,6.3,64,0.00,,,0.00,WUHU21623XXSP,2013-06-07 16:32:00,
2013-06-07 12:37:00,72.3,59.4,29.92,NE,45,4.7,6.3,64,0.00,,,0.00,WUHU21623XXSP,2013-06-07 16:37:00,
2013-06-07 12:42:00,72.1,59.3,29.92,ENE,67,6.7,6.7,64,0.00,,,0.00,WUHU21623XXSP,2013-06-07 16:42:00,
2013-06-07 12:47:00,72.7,59.8,29.92,NNE,22,7.8,7.8,64,0.00,,,0.00,WUHU21623XXSP,2013-06-07 16:47:00,
2013-06-07 12:52:00,73.2,59.8,29.92,ENE,67,5.8,9.4,63,0.00,,,0.00,WUHU21623XXSP,2013-06-07 16:52:00,
2013-06-07 12:57:00,73.6,60.2,29.92,NNE,22,6.5,9.4,63,0.00,,,0.00,WUHU21623XXSP,2013-06-07 16:57:00,
2013-06-07 13:02:00,74.3,60.4,29.91,NE,45,6.0,6.9,62,0.00,,,0.00,WUHU21623XXSP,2013-06-07 17:02:00,
2013-06-07 13:07:00,74.5,60.2,29.91,North,0,6.3,6.9,61,0.00,,,0.00,WUHU21623XXSP,2013-06-07 17:07:00,
2013-06-07 13:12:00,74.3,59.5,29.91,NNW,337,4.5,7.6,60,0.00,,,0.00,WUHU21623XXSP,2013-06-07 17:12:00,
2013-06-07 13:17:00,73.9,59.2,29.91,NNE,22,6.0,7.6,60,0.00,,,0.00,WUHU21623XXSP,2013-06-07 17:17:00,
2013-06-07 13:22:00,73.9,59.2,29.91,North,0,0.0,7.2,60,0.00,,,0.00,WUHU21623XXSP,2013-06-07 17:22:00,
2013-06-07 13:27:00,74.1,59.4,29.91,NNE,22,5.8,7.2,60,0.00,,,0.00,WUHU21623XXSP,2013-06-07 17:27:00,
2013-06-07 13:33:00,74.3,59.0,29.91,NNE,22,11.0,11.0,59,0.00,,,0.00,WUHU21623XXSP,2013-06-07 17:33:00,
2013-06-07 13:37:00,74.7,59.4,29.91,NNE,22,7.8,11.0,59,0.00,,,0.00,WUHU21623XXSP,2013-06-07 17:37:00,
2013-06-07 13:42:00,74.8,59.1,29.91,ENE,67,1.3,8.9,58,0.00,,,0.00,WUHU21623XXSP,2013-06-07 17:42:00,
2013-06-07 13:47:00,74.8,59.1,29.91,NE,45,5.8,7.4,58,0.00,,,0.00,WUHU21623XXSP,2013-06-07 17:47:00,
2013-06-07 13:52:00,75.0,59.3,29.91,NNE,22,6.0,6.9,58,0.00,,,0.00,WUHU21623XXSP,2013-06-07 17:52:00,
2013-06-07 13:57:00,75.4,59.1,29.91,NNE,22,8.7,8.7,57,0.00,,,0.00,WUHU21623XXSP,2013-06-07 17:57:00,
2013-06-07 14:02:00,75.0,58.7,29.91,North,0,6.0,8.7,57,0.00,,,0.00,WUHU21623XXSP,2013-06-07 18:02:00,
2013-06-07 14:08:00,75.6,58.7,29.91,NE,45,0.9,8.7,56,0.00,,,0.00,WUHU21623XXSP,2013-06-07 18:08:00,
2013-06-07 14:13:00,76.1,59.7,29.91,ENE,67,1.3,7.4,57,0.00,,,0.00,WUHU21623XXSP,2013-06-07 18:13:00,
2013-06-07 14:18:00,76.6,59.9,29.91,North,0,12.8,12.8,55,0.00,,,0.00,WUHU21623XXSP,2013-06-07 18:18:00,
2013-06-07 14:23:00,76.5,59.1,29.91,NNE,22,2.5,12.8,55,0.00,,,0.00,WUHU21623XXSP,2013-06-07 18:23:00,
2013-06-07 14:28:00,76.5,59.1,29.90,North,0,4.5,12.8,55,0.00,,,0.00,WUHU21623XXSP,2013-06-07 18:28:00,
2013-06-07 14:33:00,75.7,58.2,29.91,North,0,4.5,4.5,54,0.00,,,0.00,WUHU21623XXSP,2013-06-07 18:33:00,
2013-06-07 14:38:00,75.7,57.9,29.91,North,0,9.2,9.2,54,0.00,,,0.00,WUHU21623XXSP,2013-06-07 18:38:00,
2013-06-07 14:43:00,75.7,57.9,29.91,NE,45,4.5,9.2,54,0.00,,,0.00,WUHU21623XXSP,2013-06-07 18:43:00,
2013-06-07 14:49:00,75.7,57.9,29.91,NE,45,4.5,7.4,54,0.00,,,0.00,WUHU21623XXSP,2013-06-07 18:49:00,
2013-06-07 14:56:00,75.4,57.1,29.90,North,0,11.9,11.9,53,0.00,,,0.00,WUHU21623XXSP,2013-06-07 18:56:00,
2013-06-07 15:01:00,76.3,58.4,29.90,North,0,6.5,13.2,54,0.00,,,0.00,WUHU21623XXSP,2013-06-07 19:01:00,
2013-06-07 15:06:00,76.8,58.4,29.90,NNE,22,7.2,13.2,53,0.00,,,0.00,WUHU21623XXSP,2013-06-07 19:06:00,
2013-06-07 15:11:00,76.8,58.4,29.90,NNE,22,12.8,12.8,53,0.00,,,0.00,WUHU21623XXSP,2013-06-07 19:11:00,
2013-06-07 15:16:00,76.8,57.9,29.90,North,0,6.3,12.8,52,0.00,,,0.00,WUHU21623XXSP,2013-06-07 19:16:00,
2013-06-07 15:22:00,76.8,57.9,29.90,NNE,22,6.3,12.8,52,0.00,,,0.00,WUHU21623XXSP,2013-06-07 19:22:00,
2013-06-07 15:27:00,77.2,58.2,29.90,NNW,337,7.4,11.2,52,0.00,,,0.00,WUHU21623XXSP,2013-06-07 19:27:00,
2013-06-07 15:32:00,77.2,58.2,29.90,NNW,337,5.6,11.2,52,0.00,,,0.00,WUHU21623XXSP,2013-06-07 19:32:00,
2013-06-07 15:37:00,76.6,57.7,29.89,NNW,337,8.5,8.5,52,0.00,,,0.00,WUHU21623XXSP,2013-06-07 19:37:00,
2013-06-07 15:42:00,76.3,57.4,29.90,NNE,22,9.4,9.4,52,0.00,,,0.00,WUHU21623XXSP,2013-06-07 19:42:00,
2013-06-07 15:47:00,76.1,57.2,29.90,NNW,337,7.6,9.4,52,0.00,,,0.00,WUHU21623XXSP,2013-06-07 19:47:00,
2013-06-07 15:52:00,76.1,57.2,29.89,North,0,6.5,9.2,52,0.00,,,0.00,WUHU21623XXSP,2013-06-07 19:52:00,
2013-06-07 15:57:00,75.9,57.6,29.89,North,0,14.5,14.5,53,0.00,,,0.00,WUHU21623XXSP,2013-06-07 19:57:00,
2013-06-07 16:03:00,75.6,57.2,29.89,North,0,9.2,14.5,53,0.00,,,0.00,WUHU21623XXSP,2013-06-07 20:03:00,
2013-06-07 16:07:00,75.9,58.1,29.89,WSW,247,6.9,9.2,54,0.00,,,0.00,WUHU21623XXSP,2013-06-07 20:07:00,
2013-06-07 16:13:00,76.6,58.2,29.89,WSW,247,6.0,9.2,53,0.00,,,0.00,WUHU21623XXSP,2013-06-07 20:13:00,
2013-06-07 16:18:00,77.0,58.0,29.89,North,0,9.2,9.6,52,0.00,,,0.00,WUHU21623XXSP,2013-06-07 20:18:00,
2013-06-07 16:23:00,76.6,57.7,29.89,NE,45,6.5,9.6,52,0.00,,,0.00,WUHU21623XXSP,2013-06-07 20:23:00,
2013-06-07 16:28:00,75.9,57.6,29.89,NNW,337,9.8,11.2,53,0.00,,,0.00,WUHU21623XXSP,2013-06-07 20:28:00,
2013-06-07 16:33:00,75.7,57.4,29.89,North,0,9.2,11.2,53,0.00,,,0.00,WUHU21623XXSP,2013-06-07 20:33:00,
2013-06-07 16:38:00,75.0,56.7,29.89,NNE,22,8.5,9.2,53,0.00,,,0.00,WUHU21623XXSP,2013-06-07 20:38:00,
2013-06-07 16:43:00,74.5,56.7,29.89,NNW,337,6.3,8.5,54,0.00,,,0.00,WUHU21623XXSP,2013-06-07 20:43:00,
2013-06-07 16:49:00,74.1,56.8,29.89,NNE,22,6.7,7.6,55,0.00,,,0.00,WUHU21623XXSP,2013-06-07 20:49:00,
2013-06-07 16:53:00,73.9,56.7,29.90,North,0,8.5,8.5,55,0.00,,,0.00,WUHU21623XXSP,2013-06-07 20:53:00,
2013-06-07 16:59:00,73.9,56.7,29.90,NNW,337,10.1,10.1,55,0.00,,,0.00,WUHU21623XXSP,2013-06-07 20:59:00,
2013-06-07 17:04:00,73.4,56.6,29.89,NNW,337,6.9,10.3,56,0.00,,,0.00,WUHU21623XXSP,2013-06-07 21:04:00,
2013-06-07 17:09:00,73.2,56.5,29.89,NNE,22,9.2,10.3,56,0.00,,,0.00,WUHU21623XXSP,2013-06-07 21:09:00,
2013-06-07 17:14:00,73.0,56.3,29.89,North,0,6.0,9.2,56,0.00,,,0.00,WUHU21623XXSP,2013-06-07 21:14:00,
2013-06-07 17:20:00,73.0,56.8,29.90,NNE,22,8.3,9.2,57,0.00,,,0.00,WUHU21623XXSP,2013-06-07 21:20:00,
2013-06-07 17:25:00,73.0,56.3,29.89,NNW,337,6.3,8.9,56,0.00,,,0.00,WUHU21623XXSP,2013-06-07 21:25:00,
2013-06-07 17:30:00,72.9,56.6,29.90,North,0,4.0,8.9,57,0.00,,,0.00,WUHU21623XXSP,2013-06-07 21:30:00,
2013-06-07 17:35:00,72.7,56.5,29.90,NNW,337,7.4,8.3,57,0.00,,,0.00,WUHU21623XXSP,2013-06-07 21:35:00,
2013-06-07 17:40:00,72.5,56.3,29.90,NNW,337,8.9,8.9,57,0.00,,,0.00,WUHU21623XXSP,2013-06-07 21:40:00,
2013-06-07 17:45:00,72.5,56.3,29.89,North,0,7.4,8.9,57,0.00,,,0.00,WUHU21623XXSP,2013-06-07 21:45:00,
2013-06-07 17:50:00,72.3,56.7,29.89,North,0,6.0,7.4,58,0.00,,,0.00,WUHU21623XXSP,2013-06-07 21:50:00,
2013-06-07 17:55:00,72.3,56.7,29.90,North,0,7.6,7.6,58,0.00,,,0.00,WUHU21623XXSP,2013-06-07 21:55:00,
2013-06-07 18:00:00,72.0,56.5,29.90,North,0,7.8,7.8,59,0.00,,,0.00,WUHU21623XXSP,2013-06-07 22:00:00,
2013-06-07 18:06:00,71.8,56.7,29.90,North,0,7.4,7.8,59,0.00,,,0.00,WUHU21623XXSP,2013-06-07 22:06:00,
2013-06-07 18:11:00,71.8,56.7,29.89,NNW,337,6.5,7.4,59,0.00,,,0.00,WUHU21623XXSP,2013-06-07 22:11:00,
2013-06-07 18:16:00,71.8,56.7,29.90,NW,315,6.0,7.4,59,0.00,,,0.00,WUHU21623XXSP,2013-06-07 22:16:00,
2013-06-07 18:21:00,71.8,56.7,29.89,North,0,8.7,8.7,59,0.00,,,0.00,WUHU21623XXSP,2013-06-07 22:21:00,
2013-06-07 18:26:00,71.8,56.7,29.89,North,0,6.3,8.7,59,0.00,,,0.00,WUHU21623XXSP,2013-06-07 22:26:00,
2013-06-07 18:31:00,71.8,57.2,29.89,NNW,337,6.5,7.6,60,0.00,,,0.00,WUHU21623XXSP,2013-06-07 22:31:00,
2013-06-07 18:36:00,71.8,56.7,29.89,NNW,337,8.5,8.5,59,0.00,,,0.00,WUHU21623XXSP,2013-06-07 22:36:00,
2013-06-07 18:41:00,71.8,56.7,29.89,North,0,5.1,8.5,59,0.00,,,0.00,WUHU21623XXSP,2013-06-07 22:41:00,
2013-06-07 18:46:00,71.6,56.5,29.89,NNW,337,4.3,8.5,59,0.00,,,0.00,WUHU21623XXSP,2013-06-07 22:46:00,
2013-06-07 18:51:00,71.4,56.4,29.89,North,0,6.3,7.4,59,0.00,,,0.00,WUHU21623XXSP,2013-06-07 22:51:00,
2013-06-07 18:56:00,71.4,56.4,29.90,North,0,7.6,7.6,59,0.00,,,0.00,WUHU21623XXSP,2013-06-07 22:56:00,
2013-06-07 19:02:00,71.4,56.4,29.90,North,0,3.8,7.6,59,0.00,,,0.00,WUHU21623XXSP,2013-06-07 23:02:00,
2013-06-07 19:07:00,71.2,56.7,29.90,North,0,2.5,6.7,60,0.00,,,0.00,WUHU21623XXSP,2013-06-07 23:07:00,
2013-06-07 19:12:00,71.4,56.9,29.90,NNE,22,4.7,4.7,60,0.00,,,0.00,WUHU21623XXSP,2013-06-07 23:12:00,
2013-06-07 19:17:00,71.2,56.7,29.90,NNE,22,2.5,4.7,60,0.00,,,0.00,WUHU21623XXSP,2013-06-07 23:17:00,
2013-06-07 19:22:00,71.2,56.7,29.90,North,0,2.5,4.7,60,0.00,,,0.00,WUHU21623XXSP,2013-06-07 23:22:00,
2013-06-07 19:27:00,71.2,56.7,29.90,NNE,22,3.8,4.5,60,0.00,,,0.00,WUHU21623XXSP,2013-06-07 23:27:00,
2013-06-07 19:32:00,71.1,56.5,29.91,NNE,22,4.9,4.9,60,0.00,,,0.00,WUHU21623XXSP,2013-06-07 23:32:00,
2013-06-07 19:37:00,70.9,56.4,29.91,NNE,22,1.6,4.9,60,0.00,,,0.00,WUHU21623XXSP,2013-06-07 23:37:00,
2013-06-07 19:43:00,70.9,56.4,29.91,NNE,22,1.8,1.8,60,0.00,,,0.00,WUHU21623XXSP,2013-06-07 23:43:00,
2013-06-07 19:48:00,70.7,56.6,29.91,NNE,22,0.9,2.7,61,0.00,,,0.00,WUHU21623XXSP,2013-06-07 23:48:00,
2013-06-07 19:53:00,70.7,56.6,29.91,NNE,22,2.2,2.7,61,0.00,,,0.00,WUHU21623XXSP,2013-06-07 23:53:00,
2013-06-07 19:58:00,70.7,56.6,29.91,NE,45,2.0,2.2,61,0.00,,,0.00,WUHU21623XXSP,2013-06-07 23:58:00,
2013-06-07 20:03:00,70.5,56.5,29.91,NNE,22,0.7,2.2,61,0.00,,,0.00,WUHU21623XXSP,2013-06-08 00:03:00,
2013-06-07 20:08:00,70.5,56.5,29.91,NNE,22,0.0,0.7,61,0.00,,,0.00,WUHU21623XXSP,2013-06-08 00:08:00,
2013-06-07 20:14:00,70.3,56.5,29.91,NNE,22,0.0,0.0,62,0.00,,,0.00,WUHU21623XXSP,2013-06-08 00:14:00,
2013-06-07 20:21:00,70.3,56.7,29.91,NNE,22,0.0,0.0,62,0.00,,,0.00,WUHU21623XXSP,2013-06-08 00:21:00,
2013-06-07 20:26:00,70.2,56.6,29.91,NNE,22,0.0,0.0,63,0.00,,,0.00,WUHU21623XXSP,2013-06-08 00:26:00,
2013-06-07 20:31:00,70.0,56.8,29.91,NNE,22,0.0,0.0,63,0.00,,,0.00,WUHU21623XXSP,2013-06-08 00:31:00,
2013-06-07 20:36:00,70.0,57.2,29.91,NNE,22,0.0,0.0,64,0.00,,,0.00,WUHU21623XXSP,2013-06-08 00:36:00,
2013-06-07 20:41:00,69.8,57.5,29.92,NNE,22,0.0,0.0,65,0.00,,,0.00,WUHU21623XXSP,2013-06-08 00:41:00,
2013-06-07 20:46:00,69.8,57.5,29.91,NNE,22,0.0,0.0,65,0.00,,,0.00,WUHU21623XXSP,2013-06-08 00:46:00,
2013-06-07 20:51:00,69.6,57.3,29.91,NNE,22,0.0,0.0,65,0.00,,,0.00,WUHU21623XXSP,2013-06-08 00:51:00,
2013-06-07 20:56:00,69.4,57.1,29.92,NNE,22,0.0,0.0,65,0.00,,,0.00,WUHU21623XXSP,2013-06-08 00:56:00,
2013-06-07 21:02:00,69.4,57.1,29.92,NNE,22,0.0,0.0,65,0.00,,,0.00,WUHU21623XXSP,2013-06-08 01:02:00,
2013-06-07 21:07:00,69.1,56.8,29.91,NNE,22,0.0,0.0,65,0.00,,,0.00,WUHU21623XXSP,2013-06-08 01:07:00,
2013-06-07 21:12:00,68.9,56.6,29.92,NNE,22,0.0,0.0,65,0.00,,,0.00,WUHU21623XXSP,2013-06-08 01:12:00,
2013-06-07 21:17:00,68.7,56.4,29.92,NNE,22,0.0,0.0,65,0.00,,,0.00,WUHU21623XXSP,2013-06-08 01:17:00,
2013-06-07 21:22:00,68.5,55.8,29.92,NNE,22,0.0,0.0,64,0.00,,,0.00,WUHU21623XXSP,2013-06-08 01:22:00,
2013-06-07 21:27:00,68.4,56.1,29.92,NNE,22,0.0,0.0,65,0.00,,,0.00,WUHU21623XXSP,2013-06-08 01:27:00,
2013-06-07 21:32:00,68.2,55.9,29.92,NNE,22,0.0,0.0,65,0.00,,,0.00,WUHU21623XXSP,2013-06-08 01:32:00,
2013-06-07 21:37:00,67.8,56.0,29.92,NNE,22,0.0,0.0,66,0.00,,,0.00,WUHU21623XXSP,2013-06-08 01:37:00,
2013-06-07 21:42:00,67.8,56.9,29.92,NNE,22,0.0,0.0,68,0.00,,,0.00,WUHU21623XXSP,2013-06-08 01:42:00,
2013-06-07 21:48:00,67.8,57.3,29.92,NNE,22,0.0,0.0,69,0.00,,,0.00,WUHU21623XXSP,2013-06-08 01:48:00,
2013-06-07 21:53:00,67.8,57.3,29.92,NNE,22,0.0,0.0,69,0.00,,,0.00,WUHU21623XXSP,2013-06-08 01:53:00,
2013-06-07 21:58:00,67.6,57.1,29.93,NNE,22,0.0,0.0,69,0.00,,,0.00,WUHU21623XXSP,2013-06-08 01:58:00,
2013-06-07 22:03:00,67.3,56.8,29.93,NNE,22,0.0,0.0,69,0.00,,,0.00,WUHU21623XXSP,2013-06-08 02:03:00,
2013-06-07 22:08:00,67.1,56.6,29.93,NNE,22,0.0,0.0,69,0.00,,,0.00,WUHU21623XXSP,2013-06-08 02:08:00,
2013-06-07 22:13:00,66.9,56.4,29.93,NNE,22,0.0,0.0,69,0.00,,,0.00,WUHU21623XXSP,2013-06-08 02:13:00,
2013-06-07 22:18:00,66.7,56.2,29.93,NNE,22,2.7,2.7,69,0.00,,,0.00,WUHU21623XXSP,2013-06-08 02:18:00,
2013-06-07 22:24:00,66.7,56.7,29.93,NNE,22,2.0,2.7,70,0.00,,,0.00,WUHU21623XXSP,2013-06-08 02:24:00,
2013-06-07 22:29:00,66.7,57.0,29.93,NNE,22,3.4,3.4,71,0.00,,,0.00,WUHU21623XXSP,2013-06-08 02:29:00,
2013-06-07 22:34:00,66.9,57.0,29.93,NE,45,1.3,4.9,70,0.00,,,0.00,WUHU21623XXSP,2013-06-08 02:34:00,
2013-06-07 22:39:00,66.9,56.8,29.93,NE,45,2.5,4.9,70,0.00,,,0.00,WUHU21623XXSP,2013-06-08 02:39:00,
2013-06-07 22:44:00,67.1,56.8,29.94,NE,45,2.5,2.5,70,0.00,,,0.00,WUHU21623XXSP,2013-06-08 02:44:00,
2013-06-07 22:49:00,67.3,56.8,29.94,NE,45,2.2,2.5,69,0.00,,,0.00,WUHU21623XXSP,2013-06-08 02:49:00,
2013-06-07 22:55:00,67.3,56.8,29.94,NE,45,1.1,2.2,69,0.00,,,0.00,WUHU21623XXSP,2013-06-08 02:55:00,
2013-06-07 23:00:00,67.3,56.3,29.94,ENE,67,0.0,2.2,68,0.00,,,0.00,WUHU21623XXSP,2013-06-08 03:00:00,
2013-06-07 23:05:00,67.3,56.3,29.95,ENE,67,3.4,3.4,68,0.00,,,0.00,WUHU21623XXSP,2013-06-08 03:05:00,
2013-06-07 23:10:00,67.3,56.3,29.95,ENE,67,1.8,3.4,68,0.00,,,0.00,WUHU21623XXSP,2013-06-08 03:10:00,
2013-06-07 23:15:00,67.3,56.3,29.95,NE,45,2.2,2.7,68,0.00,,,0.00,WUHU21623XXSP,2013-06-08 03:15:00,
2013-06-07 23:20:00,67.3,56.3,29.94,NE,45,2.7,3.6,68,0.00,,,0.00,WUHU21623XXSP,2013-06-08 03:20:00,
2013-06-07 23:25:00,67.3,56.3,29.95,NE,45,3.6,3.6,68,0.00,,,0.00,WUHU21623XXSP,2013-06-08 03:25:00,
2013-06-07 23:31:00,67.3,56.3,29.95,NE,45,0.9,3.6,68,0.00,,,0.00,WUHU21623XXSP,2013-06-08 03:31:00,
2013-06-07 23:36:00,67.1,56.2,29.95,NE,45,3.8,3.8,68,0.00,,,0.00,WUHU21623XXSP,2013-06-08 03:36:00,
2013-06-07 23:41:00,67.3,56.3,29.95,ENE,67,2.5,3.8,68,0.00,,,0.00,WUHU21623XXSP,2013-06-08 03:41:00,
2013-06-07 23:47:00,67.1,56.2,29.95,ENE,67,5.6,5.6,68,0.00,,,0.00,WUHU21623XXSP,2013-06-08 03:47:00,
2013-06-07 23:52:00,67.3,56.2,29.95,ENE,67,2.5,5.6,68,0.00,,,0.00,WUHU21623XXSP,2013-06-08 03:52:00,
2013-06-07 23:57:00,67.1,56.2,29.95,ENE,67,4.3,4.3,68,0.00,,,0.00,WUHU21623XXSP,2013-06-08 03:57:00,